Regional Weather Roundup
Issued by NWS

Home | Current Version | Previous Version | Graphics & Text | Print | Product List | Glossary On
Versions: 1 2 3 4 5 6 7 8 9 10 11 12 13 14 15 16 17 18 19 20 21 22 23 24 25 26 27 28 29 30 31 32 33 34 35 36 37 38 39 40 41 42 43 44 45 46 47 48 49 50
000
ASUS45 KBOU 290907
RWRCO

WEATHER ROUNDUP FOR COLORADO
NATIONAL WEATHER SERVICE DENVER/BOULDER CO
300 AM MDT FRI MAY 29 2015

NOTE: "FAIR" INDICATES FEW OR NO CLOUDS BELOW 12000 FEET WITH NO
SIGNIFICANT WEATHER AND/OR OBSTRUCTIONS TO VISIBILITY.

COZ001>005-013-030-031-291000-
...NORTHWEST COLORADO...

CITY           SKY/WX    TMP DP  RH WIND       PRES   REMARKS
CRAIG          MOCLDY    39  37  92 CALM      30.25R
HAYDEN         MOCLDY    39  36  87 E3        30.25R
MEEKER         PTCLDY    39  37  92 NE3       30.25S
MOUNT WERNER   NOT AVBL
STEAMBOAT SPGS CLOUDY    40  39  95 E6        30.25F
WALDEN         CLOUDY    37  34  87 SE3       30.27R
$$

COZ006>008-011-291000-
...WEST CENTRAL VALLEYS...

CITY           SKY/WX    TMP DP  RH WIND       PRES   REMARKS
GRAND JUNCTION CLEAR     49  45  86 CALM      30.16S
MONTROSE       CLEAR     44  40  85 SE8       30.22S
EAGLE          PTCLDY    50  48  93 E3        30.28S
RIFLE          CLEAR     44  39  82 SE7       30.22S
DELTA          CLEAR     49  43  80 CALM      30.19S
NUCLA          CLEAR     45  41  87 SE6       30.22F
$$

COZ017>023-064>068-291000-
...SOUTHWEST COLORADO...

CITY           SKY/WX    TMP DP  RH WIND       PRES   REMARKS
DURANGO        CLEAR     40  37  89 E6        30.17S
CORTEZ         CLEAR     43  39  86 E3        30.16S
PAGOSA SPRINGS CLEAR     42  33  71 CALM      30.22F
TELLURIDE      CLEAR     38  36  93 S3        30.32F
WOLF CREEK PAS NOT AVBL
$$

COZ009-010-012-014-032>034-037-058>063-291000-
...CENTRAL COLORADO...

CITY           SKY/WX    TMP DP  RH WIND       PRES   REMARKS
ASPEN          PTCLDY    35  33  92 S6        30.28S WCI  30
BUENA VISTA    CLEAR     37  32  81 CALM      30.28R
COPPER MTN     CLOUDY    34  30  86 W10       30.39S WCI  26
BERTHOUD PASS  HVY SNOW  23  16  74 N7        30.40S VSB<1/4 WCI  15
COTTONWOOD PAS CLEAR     41  28  60 W5        30.33S
GUNNISON       CLEAR     37  32  81 CALM      30.31S
KREMMLING      MOCLDY    39  34  81 SW5       30.29R
LEADVILLE      MOCLDY    33  29  85 CALM      30.32S
MONARCH PASS   PTCLDY    30  27  86 MISG      30.50S
SALIDA         CLEAR     42  34  74 W3        30.33S
SUNLIGHT       CLEAR     34  32  93 CALM      30.40S
WILKERSON PASS PTCLDY    32  23  69 W5        30.40S WCI  27
$$

COZ069>075-291000-
...SAN LUIS VALLEY/SANGRE DE CRISTO MOUNTAINS...

CITY           SKY/WX    TMP DP  RH WIND       PRES   REMARKS
ALAMOSA        PTCLDY    40  33  76 W7        30.24S
LA VETA PASS   CLEAR    N/A N/A N/A MISG      30.34S
SAGUACHE       PTCLDY    41  36  81 NW16      30.26S
$$

COZ035-036-038>040-291000-
...NORTHERN COLORADO FRONT RANGE...

CITY           SKY/WX    TMP DP  RH WIND       PRES   REMARKS
DENVER INTL AP PTCLDY    51  47  86 NE3       30.15R
DMNS CITY PARK   N/A     49  44  83 E5        30.15R
AURORA         MOCLDY    48  45  89 E7        30.16R
FRONT RANGE AP MOCLDY    52  46  82 MISG      30.16S
ERIE MUNI ARPT MOCLDY    51  47  87 CALM      30.15R
BOULDER MUN AP MOCLDY    52  48  87 N7        30.16R
CENTENNIAL     MOCLDY    47  43  86 E6        30.15S
BROOMFIELD     MOCLDY    52  36  54 E6        30.16R
FORT COLLINS   MOCLDY    52  45  76 CALM      30.16R
LONGMONT       MOCLDY    54  48  78 CALM      30.17R
$$

COZ041-046-047-076>085-087-088-291000-
...PIKES PEAK/PALMER DIVIDE AND SOUTHERN FOOTHILLS...

CITY           SKY/WX    TMP DP  RH WIND       PRES   REMARKS
COLO. SPRINGS  MOCLDY    51  43  74 CALM      30.18S
A. F. ACADEMY  MOCLDY    44  44  99 N6        30.18S
ELLICOTT       CLOUDY   N/A N/A N/A W3        30.16S
FALCON         MOCLDY    47  41  81 NW56G104  30.20S
FORT CARSON    MOCLDY    49  43  81 N6        30.16S
LIMON          MOCLDY    49  45  86 W8        30.13S
MONUMENT HILL  PTCLDY    43  37  81 E3        30.21S
TRINIDAD       MOCLDY    51  47  86 NW9       30.16R
$$

COZ042>045-048>051-090-091-291000-
...NORTHEAST COLORADO...

CITY           SKY/WX    TMP DP  RH WIND       PRES   REMARKS
GREELEY ARPT   MOCLDY    54  46  76 CALM      30.14R
AKRON          CLEAR     49  48  97 W10       30.09S
BURLINGTON     MOCLDY    52  48  86 W7        30.06S
WRAY           MOCLDY    54  54 100 W8        30.04S
STERLING       CLEAR     50  48  93 W9        30.07S
HOLYOKE        MOCLDY    59  52  77 N8        30.03R
FORT MORGAN    MOCLDY    50  47  90 W5        30.11F
$$

COZ086-089-092>099-291000-
...SOUTHEAST COLORADO...

CITY           SKY/WX    TMP DP  RH WIND       PRES   REMARKS
PUEBLO         PTCLDY    52  49  89 W8        30.12S
LA JUNTA       MOCLDY    56  51  84 W6        30.07F
LAMAR          PTCLDY    52  51  97 S7        30.03S
SPRINGFIELD      N/A     50  48  93 NW9       30.07R
$$


USA.gov is the U.S. government's official web portal to all federal, state and local government web resources and services.